Flag Weather past 2 weeks in Wright, Florida, U.S.A.

Now
69 °F

Passing clouds.


Feels Like: 69 °F
Forecast: 59 / 73 °F
Wind: 2 mph from Southwest

Location: Hurlburt Field

Current Time: Nov 24, 2014 at 2:44:14 AM

Latest Report: Nov 24, 2014 at 1:58 AM


Visibility: 10 mi

Pressure: 29.75 "Hg

Humidity: 88%

Dew point: 66 °F

Location of WrightLocation

Historic Weather in Wright — Graph

°F

Wright temperature yesterday

Maximum temperature yesterday: 73 °F (at 10:59 AM)
Minimum temperature yesterday: 63 °F (at 12:04 AM)
Average temperature yesterday: 68 °F

Past Weeks' High & Low Weather Summary

 TemperatureHumidityPressure
High75 °F (Nov 12, 12:58 PM)90% (Nov 23, 6:58 AM)30.47 "Hg (Nov 23, 6:58 AM)
Low26 °F (Nov 18, 10:58 PM)17% (Nov 18, 2:58 PM)29.72 "Hg (Nov 23, 11:02 AM)
Average53 °F65%30.13 "Hg
* Reported Nov 9 1:58 AM — Nov 24 1:58 AM, Wright, Weather by CustomWeather, © 2014

Note: Actual official high and low records may vary slightly from our data, if they occured in-between our weather recording intervals... More about our weather records

Advertising

Wright weather history for previous 24 hours

 ConditionsComfort  
Time TempWeatherWind HumidityBarometerVisibility
1:58 AM
Nov 24
69 °FPassing clouds.2 mph88%29.75 "Hg10 mi
12:58 AM69 °FLight rain. Passing clouds.6 mph89%29.78 "Hg10 mi
11:58 PM
Nov 23
70 °FPartly cloudy.6 mph88%29.78 "Hg10 mi
10:58 PM69 °FLow clouds.10 mph88%29.79 "Hg10 mi
9:58 PM69 °FPassing clouds.10 mph88%29.78 "Hg10 mi
8:58 PM68 °FPassing clouds.8 mph87%29.78 "Hg10 mi
7:58 PM68 °FClear.7 mph87%29.78 "Hg10 mi
6:58 PM68 °FPassing clouds.8 mph86%29.75 "Hg10 mi
5:58 PM68 °FOvercast.8 mph84%29.75 "Hg10 mi
4:58 PM67 °FPassing clouds.7 mph84%29.73 "Hg7 mi
3:58 PM68 °FClear.14 mph84%29.73 "Hg10 mi
3:04 PM66 °FBroken clouds.13 mph83%29.72 "Hg10 mi
2:58 PM65 °FLight rain. Partly sunny.9 mph87%29.72 "Hg7 mi
2:03 PM64 °FHeavy rain. Partly sunny.8 mph83%29.74 "Hg2 mi
1:00 PM66 °FLight rain. Partly sunny.7 mph83%29.73 "Hg10 mi
11:58 AM64 °FLight rain. Broken clouds.13 mph88%29.73 "Hg6 mi
11:02 AM72 °FThunderstorms. Scattered clouds.18 mph88%29.72 "Hg5 mi
10:59 AM73 °FLight rain. Fog.23 mph89%29.73 "Hg5 mi
9:58 AM72 °FScattered clouds.18 mph89%29.78 "Hg7 mi
9:03 AM72 °FScattered clouds.12 mph88%29.81 "Hg7 mi
8:58 AM72 °FFog.13 mph88%29.81 "Hg6 mi
7:58 AM70 °FFog.13 mph88%29.81 "Hg5 mi
6:58 AM68 °FFog.15 mph90%29.81 "Hg6 mi
5:58 AM68 °FLow clouds.14 mph89%29.83 "Hg7 mi
4:58 AM67 °FFog.13 mph89%29.85 "Hg4 mi
4:03 AM66 °FFog.18 mph88%29.83 "Hg5 mi
3:58 AM66 °FFog.18 mph88%29.83 "Hg6 mi
2:58 AM66 °FLow clouds.15 mph87%29.86 "Hg10 mi
Weather by CustomWeather, © 2014

See weather overviewHow to use our weather pages